FW8528 Weather Reports


Display with metric or nautical units.
time (UTC)temp
F
wind
direction
speed
MPH
gust
MPH
rain 1hr
in
rain 24hr
in
rain mn
in
humidity
%
barometer
mb
20260906134704 48 263 0.0 0.0 0.00 0.00 0.00 99 1015.8
20260906134159 48 265 0.0 0.0 0.00 0.00 0.00 99 1015.4
20260906133655 48 239 0.0 0.0 0.00 0.00 0.00 99 1015.8
20260906133150 48 239 0.0 0.0 0.00 0.00 0.00 99 1015.8
20260906132645 48 239 0.0 0.0 0.00 0.00 0.00 99 1015.4
20260906132141 48 239 0.0 0.0 0.00 0.00 0.00 99 1015.4
20260906131636 48 239 0.0 0.0 0.00 0.00 0.00 99 1015.4
20260906131131 48 239 0.0 0.0 0.00 0.00 0.00 99 1015.4
20260906130626 48 239 0.0 0.0 0.00 0.00 0.00 99 1015.4
20260906130121 48 239 0.0 0.0 0.00 0.00 0.00 99 1015.4
20260906125619 48 239 0.0 0.0 0.00 0.00 0.00 99 1015.1
20260906125118 48 239 0.0 0.0 0.00 0.00 0.00 99 1015.4
20260906124614 48 239 0.0 0.0 0.00 0.00 0.00 99 1015.4
20260906124109 48 239 0.0 0.0 0.00 0.00 0.00 99 1015.4
20260906123608 48 239 0.0 0.0 0.00 0.00 0.00 99 1015.4
20260906123103 48 239 0.0 0.0 0.00 0.00 0.00 99 1015.8
20260906122602 48 239 0.0 0.0 0.00 0.00 0.00 99 1015.4
20260906122058 48 239 0.0 0.0 0.00 0.00 0.00 99 1015.4
20260906121554 48 239 0.0 0.0 0.00 0.00 0.00 99 1015.8
20260906121051 48 239 0.0 0.0 0.00 0.00 0.00 99 1015.8
20260906120545 48 239 0.0 0.0 0.00 0.00 0.00 99 1015.8
20260906120043 48 239 0.0 0.0 0.00 0.00 0.00 99 1015.4
20260906115543 48 239 0.0 0.0 0.00 0.00 0.00 99 1015.8
20260906115038 48 239 0.0 0.0 0.00 0.00 0.00 99 1015.8
20260906114538 48 239 0.0 0.0 0.00 0.00 0.00 99 1015.8
20260906114033 48 239 0.0 0.0 0.00 0.00 0.00 99 1015.8
20260906113532 48 239 0.0 0.0 0.00 0.00 0.00 99 1015.8
20260906113028 48 239 0.0 0.0 0.00 0.00 0.00 99 1015.8
20260906112523 48 239 0.0 0.0 0.00 0.00 0.00 99 1015.8
20260906112019 48 239 0.0 0.0 0.00 0.00 0.00 99 1015.8
20260906111518 48 239 0.0 0.0 0.00 0.00 0.00 99 1015.4
20260906111014 48 239 0.0 0.0 0.00 0.00 0.00 99 1015.8
20260906110509 48 239 0.0 0.0 0.00 0.00 0.00 99 1015.8
20260906110008 48 239 0.0 0.0 0.00 0.00 0.00 99 1015.8
20260906105504 48 239 0.0 0.0 0.00 0.00 0.00 99 1015.8
20260906104959 48 239 0.0 0.0 0.00 0.00 0.00 99 1015.8
20260906104457 48 239 0.0 0.0 0.00 0.00 0.00 99 1015.8
20260906103957 48 239 0.0 0.0 0.00 0.00 0.00 99 1016.2
20260906103455 49 239 0.0 0.0 0.00 0.00 0.00 99 1015.8
20260906102950 49 239 0.0 0.0 0.00 0.00 0.00 99 1015.8
20260906102450 49 239 0.0 0.0 0.00 0.00 0.00 99 1015.4
20260906101945 49 239 0.0 0.0 0.00 0.00 0.00 99 1015.8
20260906101440 49 239 0.0 0.0 0.00 0.00 0.00 99 1015.4
20260906100936 49 239 0.0 0.0 0.00 0.00 0.00 99 1015.8
20260906100435 49 239 0.0 0.0 0.00 0.00 0.00 99 1015.8
20260906095930 49 239 0.0 0.0 0.00 0.00 0.00 99 1015.4
20260906095425 49 239 0.0 0.0 0.00 0.00 0.00 99 1015.8
20260906094920 49 239 0.0 0.0 0.00 0.00 0.00 99 1015.8
20260906094414 50 239 0.0 0.0 0.00 0.00 0.00 99 1015.8
20260906093911 49 238 0.0 0.0 0.00 0.00 0.00 99 1015.8
20260906093407 49 238 0.0 0.0 0.00 0.00 0.00 99 1015.8
20260906092901 49 238 0.0 0.0 0.00 0.00 0.00 99 1015.8
20260906092401 49 238 0.0 0.0 0.00 0.00 0.00 99 1015.8
20260906091856 49 238 0.0 0.0 0.00 0.00 0.00 99 1015.8
20260906091352 49 238 0.0 0.0 0.00 0.00 0.00 99 1015.8
20260906090849 49 238 0.0 0.0 0.00 0.00 0.00 99 1015.8
20260906090348 49 238 0.0 0.0 0.00 0.00 0.00 99 1015.8
20260906085842 49 238 0.0 0.0 0.00 0.00 0.00 99 1015.8
20260906085342 49 238 0.0 0.0 0.00 0.00 0.00 99 1015.8
20260906084836 49 238 0.0 0.0 0.00 0.00 0.00 99 1015.8
20260906084336 49 238 0.0 0.0 0.00 0.00 0.00 99 1015.8
20260906083831 49 233 0.0 0.0 0.00 0.00 0.00 99 1015.8
20260906083326 50 246 0.0 0.0 0.00 0.00 0.00 99 1015.8
20260906082820 50 246 0.0 0.0 0.00 0.00 0.00 99 1015.8
20260906082316 50 246 0.0 0.0 0.00 0.00 0.00 99 1015.8
20260906081811 50 245 0.0 0.0 0.00 0.00 0.00 99 1015.8
20260906081307 50 246 0.0 0.0 0.00 0.00 0.00 99 1015.8
20260906080803 49 246 0.0 0.0 0.00 0.00 0.00 99 1015.8
20260906080259 50 246 0.0 0.0 0.00 0.00 0.00 99 1015.8
20260906075758 49 246 0.0 0.0 0.00 0.00 0.00 99 1015.8
20260906075253 50 246 0.0 0.0 0.00 0.00 0.00 99 1015.8
20260906074748 50 259 0.0 0.0 0.00 0.00 0.00 99 1015.8
20260906074248 50 259 0.0 0.0 0.00 0.00 0.00 99 1016.2
20260906073747 50 259 0.0 0.0 0.00 0.00 0.00 99 1015.8
20260906073242 50 259 0.0 0.0 0.00 0.00 0.00 99 1015.8
20260906072738 50 259 0.0 0.0 0.00 0.00 0.00 99 1016.2
20260906072234 50 259 0.0 0.0 0.00 0.00 0.00 99 1016.2
20260906071729 50 259 0.0 0.0 0.00 0.00 0.00 99 1016.2
20260906071224 50 259 0.0 0.0 0.00 0.00 0.00 99 1016.2
20260906070721 50 259 0.0 0.0 0.00 0.00 0.00 99 1016.2
20260906070216 50 259 0.0 0.0 0.00 0.00 0.00 99 1016.2
20260906065715 50 259 0.0 0.0 0.00 0.01 0.01 99 1016.2
20260906065211 50 259 0.0 0.0 0.00 0.01 0.01 99 1016.2
20260906064706 51 259 0.0 0.0 0.00 0.01 0.01 99 1016.2
20260906064202 51 259 0.0 0.0 0.00 0.01 0.01 99 1016.6
20260906063656 51 259 0.0 0.0 0.00 0.01 0.01 99 1016.9
20260906063152 51 259 0.0 0.0 0.00 0.01 0.01 99 1016.6
20260906062648 51 259 0.0 0.0 0.00 0.01 0.01 99 1016.6
20260906062146 51 259 0.0 0.0 0.00 0.01 0.01 99 1016.6
20260906061643 52 259 0.0 0.0 0.00 0.01 0.01 99 1016.2
20260906061143 52 259 0.0 0.0 0.00 0.01 0.01 99 1016.2
20260906060639 52 259 0.0 0.0 0.00 0.01 0.01 99 1016.6
20260906060136 52 259 0.0 0.0 0.00 0.01 0.01 99 1016.6
20260906055632 53 259 0.0 0.0 0.00 0.01 0.01 99 1016.6
20260906055127 53 260 0.0 0.0 0.00 0.01 0.01 99 1016.6
20260906054621 53 240 0.0 0.0 0.00 0.01 0.01 98 1016.6
20260906054117 53 238 0.0 1.0 0.00 0.01 0.01 98 1016.9
20260906053613 54 241 0.0 0.0 0.00 0.01 0.01 97 1016.6
20260906053109 54 241 0.0 0.0 0.00 0.01 0.01 96 1016.9
20260906052604 55 252 0.0 0.0 0.00 0.01 0.01 95 1016.6
20260906052101 56 269 0.0 0.0 0.00 0.01 0.01 93 1016.6
20260906051556 56 280 1.0 1.0 0.00 0.01 0.01 92 1016.6
20260906051051 57 274 1.0 1.0 0.00 0.01 0.01 91 1016.6
20260906050546 57 280 1.0 1.0 0.00 0.01 0.01 90 1016.6
20260906050042 57 289 1.0 2.0 0.00 0.01 0.01 89 1016.6
20260906045539 57 284 1.0 1.0 0.00 0.01 0.01 90 1016.6
20260906045036 57 289 1.0 1.0 0.00 0.01 0.01 92 1016.9
20260906044531 57 296 1.0 2.0 0.00 0.01 0.01 90 1016.9
20260906044026 57 273 0.0 0.0 0.00 0.01 0.01 91 1016.9
20260906043522 57 277 1.0 1.0 0.00 0.01 0.01 89 1016.9
20260906043018 57 285 1.0 1.0 0.00 0.01 0.01 89 1016.9
20260906042516 57 273 0.0 0.0 0.00 0.01 0.01 91 1016.6
20260906042011 57 273 0.0 0.0 0.00 0.01 0.01 91 1016.9
20260906041508 57 283 1.0 1.0 0.00 0.01 0.01 90 1016.9
20260906041007 57 278 0.0 1.0 0.00 0.01 0.01 92 1016.9
20260906040502 57 283 1.0 1.0 0.00 0.01 0.01 92 1016.9
20260906035957 57 278 0.0 0.0 0.00 0.01 0.01 92 1016.9
20260906035453 57 288 1.0 1.0 0.00 0.01 0.01 91 1016.9
20260906034948 57 281 0.0 0.0 0.00 0.01 0.01 91 1017.2
20260906034443 57 277 0.0 0.0 0.00 0.01 0.01 91 1016.9
20260906033938 58 276 0.0 0.0 0.00 0.01 0.01 91 1016.9
20260906033438 58 276 0.0 0.0 0.00 0.01 0.01 90 1016.9
20260906032934 58 258 0.0 0.0 0.00 0.01 0.01 87 1016.9
20260906032430 58 302 2.0 2.0 0.00 0.01 0.01 88 1016.6
20260906031924 58 290 1.0 2.0 0.00 0.01 0.01 91 1016.6
20260906031420 58 293 1.0 1.0 0.00 0.01 0.01 90 1016.9
20260906030915 58 278 0.0 0.0 0.00 0.01 0.01 91 1016.6
20260906030410 58 282 1.0 1.0 0.00 0.01 0.01 90 1016.6
20260906025904 58 280 1.0 1.0 0.00 0.01 0.01 90 1016.9
20260906025359 58 276 0.0 0.0 0.00 0.01 0.01 91 1016.6
20260906024857 58 284 1.0 1.0 0.00 0.01 0.01 90 1016.6
20260906024357 58 278 1.0 1.0 0.00 0.01 0.01 90 1016.6
20260906023852 58 280 0.0 1.0 0.00 0.01 0.01 93 1016.6
20260906023349 59 275 0.0 0.0 0.00 0.01 0.01 93 1016.6
20260906022848 59 262 0.0 1.0 0.00 0.01 0.01 92 1016.2
20260906022343 59 267 0.0 0.0 0.00 0.01 0.01 92 1016.2
20260906021839 59 266 0.0 1.0 0.00 0.01 0.01 92 1016.6
20260906021338 59 277 0.0 0.0 0.00 0.01 0.01 93 1016.2
20260906020834 59 275 1.0 1.0 0.00 0.01 0.01 93 1016.6
20260906020333 59 272 0.0 0.0 0.00 0.01 0.01 95 1016.2
20260906015828 60 273 0.0 1.0 0.00 0.01 0.01 96 1016.6
20260906015327 60 288 0.0 1.0 0.00 0.01 0.01 97 1016.6
20260906014826 60 282 1.0 1.0 0.00 0.01 0.01 96 1016.6
20260906014322 60 272 1.0 1.0 0.00 0.01 0.01 97 1016.6
20260906013818 59 279 0.0 0.0 0.00 0.01 0.01 97 1016.6
20260906013313 59 280 0.0 0.0 0.00 0.01 0.01 97 1016.6
20260906012808 59 275 0.0 0.0 0.00 0.01 0.01 97 1016.6
20260906012306 59 272 0.0 0.0 0.00 0.01 0.01 97 1016.6
20260906011758 59 238 0.0 0.0 0.00 0.01 0.01 98 1016.6
20260906011258 59 264 0.0 0.0 0.00 0.01 0.01 98 1016.6
20260906010754 59 264 0.0 0.0 0.00 0.01 0.01 98 1016.6
20260906010250 59 270 0.0 0.0 0.00 0.01 0.01 97 1016.6
20260906005745 59 272 0.0 0.0 0.00 0.01 0.01 97 1016.2
20260906005244 60 279 0.0 1.0 0.00 0.01 0.01 96 1016.6
20260906004743 60 279 0.0 0.0 0.00 0.01 0.01 95 1016.2
20260906004233 61 273 0.0 0.0 0.00 0.01 0.01 94 1016.2
20260906003733 62 265 0.0 0.0 0.05 0.01 0.01 92 1016.6
20260906003228 62 256 0.0 0.0 0.05 0.01 0.01 87 1016.2
20260906002723 63 219 2.0 3.0 0.00 0.00 0.00 83 1016.2
20260906002218 65 170 2.0 3.0 0.00 0.00 0.00 76 1016.2
20260906001713 66 255 0.0 1.0 0.00 0.00 0.00 71 1016.2
20260906001213 67 194 4.0 6.0 0.00 0.00 0.00 68 1016.2
20260906000709 68 156 3.0 3.0 0.00 0.00 0.00 63 1015.8
20260906000204 68 247 0.0 0.0 0.00 0.00 0.00 65 1016.2
20260905235703 68 226 0.0 1.0 0.00 0.00 0.00 62 1016.2
20260905235157 68 199 1.0 2.0 0.00 0.00 0.00 61 1016.2
20260905234653 68 276 0.0 0.0 0.00 0.00 0.00 62 1015.8
20260905234143 69 256 0.0 0.0 0.00 0.00 0.00 63 1015.8
20260905233638 69 231 1.0 1.0 0.00 0.00 0.00 59 1015.8
20260905233137 69 240 1.0 1.0 0.00 0.00 0.00 62 1015.8
20260905232633 68 207 1.0 1.0 0.00 0.00 0.00 60 1015.8
20260905232128 71 126 4.0 5.0 0.00 0.00 0.00 55 1015.8
20260905231623 71 249 0.0 1.0 0.00 0.00 0.00 56 1015.8
20260905231119 72 187 2.0 2.0 0.00 0.00 0.00 57 1015.8
20260905230615 72 213 1.0 1.0 0.00 0.00 0.00 56 1015.8
20260905230113 73 241 3.0 3.0 0.00 0.00 0.00 52 1016.2
20260905225612 72 294 1.0 1.0 0.00 0.00 0.00 55 1015.8
20260905225108 72 192 3.0 3.0 0.00 0.00 0.00 53 1016.2
20260905224608 72 233 1.0 1.0 0.00 0.00 0.00 54 1016.2
20260905224107 72 203 1.0 2.0 0.00 0.00 0.00 56 1016.2
20260905223604 72 229 1.0 1.0 0.00 0.00 0.00 56 1015.8
20260905223101 70 222 1.0 1.0 0.00 0.00 0.00 58 1016.2
20260905222601 71 248 1.0 1.0 0.00 0.00 0.00 56 1016.2
20260905222056 71 211 1.0 1.0 0.00 0.00 0.00 55 1016.2
20260905221552 71 204 1.0 1.0 0.00 0.00 0.00 55 1016.2
20260905221048 71 156 2.0 2.0 0.00 0.00 0.00 56 1016.6
20260905220543 71 298 2.0 2.0 0.00 0.00 0.00 57 1015.8
20260905220039 71 206 4.0 5.0 0.00 0.00 0.00 57 1016.2
20260905215538 71 341 1.0 2.0 0.00 0.00 0.00 60 1016.2
20260905215035 70 181 2.0 2.0 0.00 0.00 0.00 58 1016.6
20260905214531 70 188 3.0 3.0 0.00 0.00 0.00 57 1016.6
20260905214025 71 130 2.0 3.0 0.00 0.00 0.00 56 1016.6
20260905213521 71 177 2.0 3.0 0.00 0.00 0.00 58 1016.6
20260905213016 71 266 1.0 1.0 0.00 0.00 0.00 55 1016.6
20260905212511 70 166 3.0 3.0 0.00 0.00 0.00 57 1016.6
20260905212010 69 198 1.0 1.0 0.00 0.00 0.00 64 1016.6
20260905211506 68 259 3.0 5.0 0.00 0.00 0.00 63 1016.9
20260905211001 69 177 2.0 2.0 0.00 0.00 0.00 62 1016.9
20260905210457 70 241 5.0 7.0 0.00 0.00 0.00 61 1016.9
20260905205956 69 163 4.0 6.0 0.00 0.00 0.00 62 1016.6
20260905205451 70 161 2.0 2.0 0.00 0.00 0.00 63 1016.9
20260905204949 69 185 3.0 3.0 0.00 0.00 0.00 62 1016.9
20260905204445 68 286 2.0 2.0 0.00 0.00 0.00 64 1016.9
20260905203945 67 175 1.0 2.0 0.00 0.00 0.00 67 1016.9
20260905203440 70 114 2.0 2.0 0.00 0.00 0.00 64 1016.9
20260905202936 71 214 0.0 1.0 0.00 0.00 0.00 63 1016.9
20260905202431 69 181 2.0 2.0 0.00 0.00 0.00 64 1016.9
20260905201926 68 259 2.0 3.0 0.00 0.00 0.00 68 1016.9
20260905201421 68 261 0.0 1.0 0.00 0.00 0.00 71 1016.9
20260905200915 70 173 5.0 6.0 0.00 0.00 0.00 63 1016.9
20260905200411 70 93 1.0 3.0 0.00 0.00 0.00 65 1016.9
20260905195909 68 202 1.0 1.0 0.00 0.00 0.00 66 1017.2
20260905195405 70 205 4.0 6.0 0.00 0.00 0.00 64 1017.2
20260905194900 69 301 2.0 3.0 0.00 0.00 0.00 65 1017.2
20260905194400 68 200 2.0 3.0 0.00 0.00 0.00 67 1017.2
20260905193900 69 330 2.0 2.0 0.00 0.00 0.00 66 1017.2
20260905193354 69 145 2.0 2.0 0.00 0.00 0.00 64 1017.2
20260905192850 68 203 3.0 5.0 0.00 0.00 0.00 64 1017.6
20260905192346 68 177 3.0 6.0 0.00 0.00 0.00 66 1017.6
20260905191845 68 184 3.0 3.0 0.00 0.00 0.00 66 1017.2
20260905191345 67 323 1.0 2.0 0.00 0.00 0.00 71 1017.6
20260905190843 67 168 5.0 7.0 0.00 0.00 0.00 66 1017.6
20260905190337 67 139 4.0 6.0 0.00 0.00 0.00 67 1017.2
20260905185835 67 239 0.0 0.0 0.00 0.00 0.00 72 1017.6
20260905185331 67 222 5.0 8.0 0.00 0.00 0.00 64 1017.6
20260905184830 66 175 1.0 2.0 0.00 0.00 0.00 66 1017.6
20260905184329 66 208 2.0 3.0 0.00 0.00 0.00 68 1017.6
20260905183827 66 179 3.0 3.0 0.00 0.00 0.00 68 1017.6
20260905183323 65 235 1.0 2.0 0.00 0.00 0.00 72 1017.6
20260905182818 66 241 2.0 3.0 0.00 0.00 0.00 72 1017.9
20260905182318 65 204 1.0 1.0 0.00 0.00 0.00 73 1017.6
20260905181813 65 196 2.0 3.0 0.00 0.00 0.00 72 1017.6
20260905181313 65 211 3.0 5.0 0.00 0.00 0.00 76 1017.6
20260905180812 64 184 3.0 5.0 0.00 0.00 0.00 74 1017.9
20260905180307 63 180 1.0 2.0 0.00 0.00 0.00 78 1017.6
20260905175802 62 167 1.0 1.0 0.00 0.00 0.00 79 1017.9
20260905175256 61 222 1.0 2.0 0.00 0.00 0.00 82 1017.9
20260905174752 62 177 3.0 5.0 0.00 0.00 0.00 80 1017.9
20260905174248 61 195 0.0 1.0 0.00 0.00 0.00 86 1017.6
20260905173743 61 187 2.0 3.0 0.00 0.00 0.00 85 1017.6
20260905173239 60 272 0.0 0.0 0.00 0.00 0.00 87 1017.6
20260905172739 60 282 0.0 0.0 0.00 0.00 0.00 90 1017.6
20260905172238 60 158 2.0 3.0 0.00 0.00 0.00 87 1017.6
20260905171734 59 118 3.0 3.0 0.00 0.00 0.00 86 1017.6
20260905171230 59 239 1.0 1.0 0.00 0.00 0.00 89 1017.9
20260905170726 59 137 0.0 1.0 0.00 0.00 0.00 89 1017.6
20260905170222 58 178 1.0 2.0 0.00 0.00 0.00 90 1017.6
20260905165721 57 138 0.0 1.0 0.00 0.00 0.00 94 1017.6
20260905165217 57 264 0.0 0.0 0.00 0.00 0.00 99 1017.6
20260905164717 56 227 0.0 0.0 0.00 0.00 0.00 98 1017.6
20260905164217 56 229 0.0 0.0 0.00 0.00 0.00 99 1017.6
20260905163712 57 238 0.0 0.0 0.00 0.00 0.00 99 1017.6
20260905163209 56 309 0.0 1.0 0.00 0.00 0.00 99 1017.6
20260905162705 55 234 1.0 1.0 0.00 0.00 0.00 99 1017.6
20260905162204 55 183 0.0 1.0 0.00 0.00 0.00 99 1017.2
20260905161659 55 196 1.0 1.0 0.00 0.00 0.00 99 1017.2
20260905161157 56 229 0.0 0.0 0.00 0.00 0.00 99 1017.2
20260905160650 55 274 0.0 0.0 0.00 0.00 0.00 99 1017.6
20260905160149 55 274 0.0 0.0 0.00 0.00 0.00 99 1017.2
20260905155644 55 275 0.0 0.0 0.00 0.00 0.00 99 1017.2
20260905155143 55 252 0.0 0.0 0.00 0.00 0.00 99 1017.6
20260905154638 55 233 0.0 0.0 0.00 0.00 0.00 99 1017.2
20260905154133 54 255 0.0 0.0 0.00 0.00 0.00 99 1017.2
20260905153629 54 255 0.0 0.0 0.00 0.00 0.00 99 1017.6
20260905153124 53 255 0.0 0.0 0.00 0.00 0.00 99 1017.2
20260905152619 53 255 0.0 0.0 0.00 0.00 0.00 99 1017.6
20260905152114 52 255 0.0 0.0 0.00 0.00 0.00 99 1017.2
20260905151609 52 255 0.0 0.0 0.00 0.00 0.00 99 1017.2
20260905151104 51 255 0.0 0.0 0.00 0.00 0.00 99 1017.2
20260905150559 51 255 0.0 0.0 0.00 0.00 0.00 99 1017.2
20260905150057 51 255 0.0 0.0 0.00 0.00 0.00 99 1017.2
20260905145550 50 255 0.0 0.0 0.00 0.00 0.00 99 1017.6
20260905145050 50 255 0.0 0.0 0.00 0.00 0.00 99 1017.2
20260905144545 50 255 0.0 0.0 0.00 0.00 0.00 99 1017.2
20260905144044 50 255 0.0 0.0 0.00 0.00 0.00 99 1017.2
20260905143543 49 255 0.0 0.0 0.00 0.00 0.00 99 1017.2
20260905143039 49 255 0.0 0.0 0.00 0.00 0.00 99 1017.2
20260905142537 49 255 0.0 0.0 0.00 0.00 0.00 99 1017.2
20260905142033 49 255 0.0 0.0 0.00 0.00 0.00 99 1017.2
20260905141527 49 255 0.0 0.0 0.00 0.00 0.00 99 1017.2
20260905141024 48 255 0.0 0.0 0.00 0.00 0.00 99 1017.2
20260905140524 48 255 0.0 0.0 0.00 0.00 0.00 99 1016.9
20260905140023 49 255 0.0 0.0 0.00 0.00 0.00 99 1017.2
20260905135519 48 255 0.0 0.0 0.00 0.00 0.00 99 1017.2
20260905135013 48 255 0.0 0.0 0.00 0.00 0.00 99 1016.9